Regional Weather Roundup
Issued by NWS

Home | Current Version | Previous Version | Graphics & Text | Print | Product List | Glossary On
Versions: 1 2 3 4 5 6 7 8 9 10 11 12 13 14 15 16 17 18 19 20 21 22 23 24 25 26 27 28 29 30 31 32 33 34 35 36 37 38 39 40 41 42 43 44 45 46 47 48 49 50
000
ASUS45 KTFX 300110
RWRMT
MONTANA REGIONAL WEATHER ROUNDUP
NATIONAL WEATHER SERVICE GREAT FALLS MT
700 PM MDT MON JUN 29 2015

NOTE: "FAIR" INDICATES FEW OR NO CLOUDS BELOW 12000 FEET WITH NO
SIGNIFICANT WEATHER AND/OR OBSTRUCTIONS TO VISIBILITY.

MTZ001>007-043-300200-
WEST OF THE DIVIDE

CITY           SKY/WX    TMP DP  RH WIND       PRES   REMARKS
KALISPELL      MOCLDY    86  55  34 S6        29.96S
MISSOULA       MOSUNNY   96  47  18 NW12G17   29.93F HX  92
BUTTE          CLOUDY    78  48  34 VRB3      30.19S
MULLAN PASS    PTSUNNY   71  56  58 CALM      30.20F
DEER LODGE       N/A     68  61  77 SW13G20   30.14R
EUREKA           N/A     75  64  69 SW7       29.97F VSB 1
HAMILTON         N/A     82  55  39 S8        29.97R
PLAINS           N/A     94  56  27 W12       29.93F HX  92
RONAN            N/A     93  54  26 W5        30.01F HX  90
THOMPSON FALLS   N/A     87  59  38 SW6       29.98S
$$

MTZ008-052>055-300200-
SOUTHWEST MONTANA

CITY           SKY/WX    TMP DP  RH WIND       PRES   REMARKS
BOZEMAN        CLOUDY    71  57  61 SE14G26   30.17F
DILLON         CLOUDY    78  54  43 VRB6      30.15R
W YELLOWSTONE  CLOUDY    70  48  46 NE10      30.31R
THREE FORKS      N/A     79  55  43 SW1       30.11F
TWIN BRIDGES     N/A     79  48  33 E13       30.10F
$$

MTZ009-010-012-014-046-048-049-054-300200-
EAST SLOPES AND CENTRAL MONTANA

CITY           SKY/WX    TMP DP  RH WIND       PRES   REMARKS
CUT BANK       MOSUNNY   87  51  28 W9        29.98F
GREAT FALLS    MOSUNNY   93  49  22 NE14      29.98F HX  90
MALMSTROM AFB  PTSUNNY   92  48  22 NE15      29.97F
HELENA         PTSUNNY   87  55  33 SE16      30.01F
CONRAD           N/A     85  65  51 E5        30.01F
$$

MTZ011-013-016-021-045-047-050-051-300200-
NORTH CENTRAL MONTANA

CITY           SKY/WX    TMP DP  RH WIND       PRES   REMARKS
HAVRE          CLOUDY    88  50  27 E10       29.92F
LEWISTOWN      LGT RAIN  82  52  35 SW16G25   30.06R
CHINOOK          N/A     88  48  25 E7        29.93F
FORT BENTON      N/A     93  48  21 N14       29.93F HX  90
$$

MTZ017>020-022>027-061-062-300200-
NORTHEAST MONTANA

CITY           SKY/WX    TMP DP  RH WIND       PRES   REMARKS
GLASGOW        PTSUNNY   88  48  25 NE16      29.93S
JORDAN           N/A     94  43  17 NE10      29.93F HX  90
SIDNEY         MOSUNNY   90  61  37 N15G22    29.92R
WOLF POINT     PTSUNNY   91  52  26 N18G26    29.92S
MALTA            N/A     91  51  25 NE12      29.92S
PLENTYWOOD       N/A     79  46  31 N20G25    29.97S VSB 3/4
POPLAR           N/A     88  55  33 N13G20    29.93S
$$

MTZ028>42-056>058-300200-
SOUTHCENTRAL AND SOUTHEAST MONTANA

CITY           SKY/WX    TMP DP  RH WIND       PRES   REMARKS
BAKER          MOSUNNY   91  54  28 NW9       29.97S
BILLINGS       PTSUNNY   94  41  16 SE8       30.00F HX  90
LIVINGSTON     TSTM      68  32  26 SW26G35   30.21R
MILES CITY     MOSUNNY   94  40  15 N9        29.93F HX  90
BIG TIMBER       N/A     66  61  82 W31G40    30.16R
FORSYTH          N/A     97  43  15 E6        29.93F HX  92
LAUREL           N/A     91  50  24 E3        29.98F
ROUNDUP          N/A     94  44  17 CALM      29.91S HX  90
$$

REGIONAL REPORTS...DAKOTAS

CITY           SKY/WX    TMP DP  RH WIND       PRES   REMARKS
WILLISTON      MOSUNNY   87  55  33 NE14      29.93R
MINOT          MOSUNNY   79  66  64 E6        29.89S HAZE
DICKINSON      SUNNY     86  65  49 W7        29.89F
BEACH          FAIR      82  59  44 N9        29.95S
CROSBY         FAIR      77  59  53 N15       29.96R HAZE
BISMARCK       SUNNY     85  64  49 E5        29.89F
GRAND FORKS    CLOUDY    71  64  78 N8        29.88S
FARGO          SUNNY     73  64  73 NW10      29.87R
BUFFALO SD       N/A     88  61  40 W6        29.91F
RAPID CITY     SUNNY     82  63  52 S9        30.03F
$$

REGIONAL REPORTS...WYOMING/IDAHO/WASHINGTON

CITY           SKY/WX    TMP DP  RH WIND       PRES   REMARKS
GILLETTE       MOSUNNY   86  56  35 E8        30.09F
SHERIDAN       SUNNY     86  61  42 SW7       30.05F
BUFFALO WY     SUNNY     85  50  29 NW3       30.15F
CODY           PTSUNNY   90  43  19 SE9       30.09S
YELLOWSTONE LA   N/A     73  42  32 MISG      30.38R
IDAHO FALLS    CLOUDY    79  55  43 N18G31    30.07R
SALMON         PTSUNNY   82  63  51 NW10      29.98R
BOISE          PTSUNNY   99  51  19 NW12      29.87F HX  96
SPOKANE        MOSUNNY   93  52  24 SW10      29.92F HX  90
$$

REGIONAL REPORTS...ALBERTA

CITY           SKY/WX    TMP DP  RH WIND       PRES   REMARKS
EDMONTON       LGT RAIN  63  55  77 S10       30.02F
CALGARY        PTSUNNY   73  57  56 S8        30.05F
LETHBRIDGE     PTSUNNY   81  55  41 NW6       30.03R
MEDICINE HAT   PTSUNNY   82  48  30 E15G28    29.94S SMOKE
WATERTON GATE    N/A     66  59  77 N5          N/A
CARDSTON         N/A     70  63  78 NW21G31     N/A
MILK RIVER       N/A     88  54  31 N5          N/A
ONEFOUR          N/A     90  45  20 SE10        N/A
$$

REGIONAL REPORTS...SASKATCHEWAN

CITY           SKY/WX    TMP DP  RH WIND       PRES   REMARKS
SWIFT CURRENT  CLOUDY    73  50  43 E15       30.05F VSB 3/4
REGINA         LGT RAIN  68  57  68 N15G23    30.02S SMOKE
SASKATOON      SMOKE     73  52  46 NE2       30.03F VSB 1
CYPRESS HILLS    N/A     73  48  40 E10         N/A
VAL MARIE        N/A     79  45  29 NE22G30     N/A
ROCKGLEN         N/A     73  43  33 N9          N/A
$$


USA.gov is the U.S. government's official web portal to all federal, state and local government web resources and services.